Muskegon, MI

6:34 PM EDT on June 23, 2017 (GMT -0400)
Muskegon County

Weather History for KMKG - January, 2014

Change the Weather History Date:

Saturday, January 4, 2014

  Actual Average Record
Temperature  
Mean Temperature 27 °F 26 °F  
Max Temperature 32 °F 32 °F 61 °F (1997)
Min Temperature 22 °F 21 °F -6 °F (1981)
Degree Days  
Heating Degree Days 38 39  
Month to date heating degree days 198 154  
Since 1 July heating degree days 2662 2600  
Cooling Degree Days 0 0  
Month to date cooling degree days 0 0  
Year to date cooling degree days 0 0  
Moisture  
Dew Point 22 °F    
Average Humidity 79    
Maximum Humidity 92    
Minimum Humidity 66    
Precipitation  
Precipitation 0.28 in 0.07 in 0.97 in (1993)
Month to date precipitation 0.33 0.29  
Year to date precipitation 0.33 0.29  
Snow  
Snow 3.10 in 0.90 in 9.20 in (1999)
Month to date snowfall 4.8 3.5  
Since 1 July snowfall 52.9 38.6  
Snow Depth 10.00 in    
Sea Level Pressure  
Sea Level Pressure 29.87 in    
Wind  
Wind Speed 19 mph (SW)    
Max Wind Speed 36 mph    
Max Gust Speed 48 mph    
Visibility 3 miles    
Events Fog , Snow    
T = Trace of Precipitation, MM = Missing Value Source: NWS Daily Summary

Daily Weather History Graph

Daily Weather History Graph

Search for Another Location

Airport or City:

Trip Planner

Search our weather history database for the weather conditions in past years. The results will help you decide how hot, cold, wet, or windy it might be!

Date:

Astronomy

Jan. 04, 2014 Rise Set
Actual Time 8:16 AM EST 5:23 PM EST
Civil Twilight 7:44 AM EST 5:55 PM EST
Nautical Twilight 7:09 AM EST 6:31 PM EST
Astronomical Twilight 6:34 AM EST 7:05 PM EST
Moon 10:15 AM EST (1/4) 9:49 PM EST (1/4)
Length of Visible Light 10h 10m
Length of Day
9h 06m
Waxing Crescent, 15% of the Moon is Illuminated
Jan 4
Waxing Crescent
Jan 7
First Quarter
Jan 15
Full
Jan 24
Last Quarter
Jan 30
New

Hourly Weather History & Observations

Time (EST) Temp. Windchill Dew Point Humidity Pressure Visibility Wind Dir Wind Speed Gust Speed Precip Events Conditions
12:04 AM 21.2 °F 3.5 °F 14.0 °F 74% 29.93 in 1.0 mi South 27.6 mph 43.7 mph 0.00 in Snow Light Snow
12:23 AM 21.2 °F 4.2 °F 14.0 °F 74% 29.92 in 2.0 mi South 25.3 mph 38.0 mph 0.00 in Snow Blowing Snow
12:46 AM 23.0 °F 6.3 °F 14.0 °F 68% 29.91 in 4.0 mi South 26.5 mph 35.7 mph 0.00 in   Mostly Cloudy
12:55 AM 23.0 °F 7.2 °F 15.1 °F 72% 29.94 in 3.0 mi South 23.0 mph 39.1 mph 0.00 in   Mostly Cloudy
1:05 AM 24.8 °F 7.9 °F 15.8 °F 69% 29.91 in 2.0 mi South 29.9 mph 38.0 mph 0.00 in   Mostly Cloudy
1:26 AM 24.8 °F 9.0 °F 15.8 °F 69% 29.90 in 1.8 mi South 25.3 mph 36.8 mph 0.00 in   Overcast
1:32 AM 24.8 °F 9.3 °F 15.8 °F 69% 29.89 in 3.0 mi SSW 24.2 mph 35.7 mph 0.00 in   Overcast
1:40 AM 24.8 °F 6.6 °F 17.6 °F 74% 29.88 in 1.8 mi South 35.7 mph 47.2 mph 0.00 in Snow Light Snow
1:55 AM 25.0 °F 8.4 °F 17.1 °F 72% 29.90 in 1.8 mi SSW 28.8 mph 43.7 mph 0.00 in Snow Light Snow
2:05 AM 26.6 °F 11.4 °F 17.6 °F 69% 29.87 in 3.0 mi SSW 25.3 mph 38.0 mph 0.00 in Snow Blowing Snow
2:22 AM 24.8 °F 9.0 °F 17.6 °F 74% 29.85 in 1.8 mi South 25.3 mph 43.7 mph 0.00 in   Mostly Cloudy
2:29 AM 26.6 °F 9.6 °F 17.6 °F 69% 29.86 in 2.5 mi SSW 33.4 mph 44.9 mph 0.00 in   Mostly Cloudy
2:40 AM 26.6 °F 9.8 °F 17.6 °F 69% 29.86 in 2.0 mi SSW 32.2 mph 42.6 mph 0.00 in   Scattered Clouds
2:48 AM 26.6 °F 10.6 °F 17.6 °F 69% 29.86 in 2.5 mi SSW 28.8 mph 42.6 mph 0.00 in   Mostly Cloudy
2:52 AM 26.6 °F 11.1 °F 17.6 °F 69% 29.85 in 3.0 mi SSW 26.5 mph 42.6 mph 0.00 in   Scattered Clouds
2:55 AM 26.1 °F 10.1 °F 18.0 °F 71% 29.88 in 2.5 mi South 27.6 mph 42.6 mph 0.00 in   Scattered Clouds
3:02 AM 26.6 °F 9.6 °F 17.6 °F 69% 29.85 in 1.8 mi SSW 33.4 mph 48.3 mph 0.00 in   Scattered Clouds
3:09 AM 26.6 °F 10.3 °F 17.6 °F 69% 29.85 in 2.0 mi SSW 29.9 mph 41.4 mph 0.00 in Snow Light Snow
3:20 AM 26.6 °F 10.8 °F 17.6 °F 69% 29.85 in 2.5 mi SSW 27.6 mph 39.1 mph 0.00 in   Scattered Clouds
3:23 AM 26.6 °F 10.0 °F 17.6 °F 69% 29.84 in 3.0 mi SSW 31.1 mph 40.3 mph 0.00 in   Mostly Cloudy
3:41 AM 26.6 °F 11.7 °F 19.4 °F 74% 29.83 in 3.0 mi SSW 24.2 mph 41.4 mph 0.00 in   Scattered Clouds
3:48 AM 26.6 °F 11.1 °F 19.4 °F 74% 29.83 in 3.0 mi South 26.5 mph 41.4 mph 0.00 in Snow Light Snow
3:52 AM 26.6 °F 11.1 °F 19.4 °F 74% 29.83 in 2.5 mi SSW 26.5 mph 41.4 mph 0.00 in Snow Light Snow
3:55 AM 27.0 °F 11.9 °F 19.0 °F 72% 29.86 in 3.0 mi SSW 25.3 mph 39.1 mph 0.00 in Snow Light Snow
4:37 AM 26.6 °F 12.0 °F 19.4 °F 74% 29.81 in 4.0 mi SSW 23.0 mph 42.6 mph 0.00 in   Mostly Cloudy
4:55 AM 28.0 °F 12.8 °F 19.9 °F 72% 29.84 in 4.0 mi SSW 27.6 mph 35.7 mph 0.00 in   Haze
5:08 AM 28.4 °F 14.4 °F 19.4 °F 69% 29.81 in 5.0 mi SSW 23.0 mph 43.7 mph 0.01 in   Scattered Clouds
5:55 AM 28.0 °F 11.5 °F 19.9 °F 72% 29.82 in 5.0 mi SSW 33.4 mph 41.4 mph 0.01 in Snow Blowing Snow
6:55 AM 30.0 °F 14.7 °F 21.0 °F 69% 29.81 in 6.0 mi SSW 31.1 mph 40.3 mph N/A Snow Blowing Snow
7:55 AM 30.0 °F 14.5 °F 21.0 °F 69% 29.81 in 6.0 mi SSW 32.2 mph 41.4 mph N/A Snow Blowing Snow
8:55 AM 30.9 °F 16.4 °F 21.9 °F 69% 29.82 in 8.0 mi SW 28.8 mph 42.6 mph N/A   Scattered Clouds
9:05 AM 30.2 °F 14.9 °F 21.2 °F 69% 29.79 in 6.0 mi SW 31.1 mph 39.1 mph N/A Snow Blowing Snow
9:23 AM 30.2 °F 15.9 °F 21.2 °F 69% 29.79 in 6.0 mi SW 26.5 mph 41.4 mph N/A Snow Blowing Snow
9:39 AM 30.2 °F 15.7 °F 21.2 °F 69% 29.80 in 8.0 mi SW 27.6 mph 38.0 mph N/A   Mostly Cloudy
9:55 AM 30.9 °F 16.2 °F 21.9 °F 69% 29.83 in 6.0 mi SW 29.9 mph 40.3 mph N/A Snow Blowing Snow
10:55 AM 32.0 °F 18.9 °F 23.0 °F 69% 29.84 in 9.0 mi SW 24.2 mph 38.0 mph N/A   Overcast
11:05 AM 30.2 °F 15.9 °F 23.0 °F 75% 29.81 in 7.0 mi SW 26.5 mph 38.0 mph N/A   Overcast
11:44 AM 32.0 °F 18.4 °F 23.0 °F 69% 29.80 in 10.0 mi SSW 26.5 mph 33.4 mph N/A   Overcast
11:55 AM 32.0 °F 18.1 °F 23.0 °F 69% 29.82 in 10.0 mi SW 27.6 mph 34.5 mph N/A   Overcast
12:29 PM 30.2 °F 15.9 °F 24.8 °F 80% 29.80 in 1.5 mi SW 26.5 mph 36.8 mph 0.00 in Snow Light Snow
12:48 PM 30.2 °F 15.7 °F 24.8 °F 80% 29.80 in 0.8 mi SW 27.6 mph 33.4 mph 0.01 in Snow Light Snow
12:55 PM 30.0 °F 16.3 °F 26.1 °F 85% 29.83 in 0.8 mi SW 24.2 mph 33.4 mph 0.01 in Snow Light Snow
1:11 PM 30.2 °F 17.1 °F 26.6 °F 86% 29.81 in 0.5 mi SW 21.9 mph 29.9 mph 0.01 in Fog , Snow Snow
1:26 PM 30.2 °F 17.8 °F 26.6 °F 86% 29.82 in 0.2 mi SW 19.6 mph 28.8 mph 0.02 in Fog , Snow Snow
1:55 PM 30.9 °F 18.1 °F 27.0 °F 85% 29.84 in 0.5 mi SW 21.9 mph 31.1 mph 0.03 in Fog , Snow Snow
2:14 PM 30.2 °F 16.8 °F 26.6 °F 86% 29.81 in 0.5 mi SW 23.0 mph 31.1 mph 0.02 in Snow Light Snow
2:35 PM 30.2 °F 17.4 °F 26.6 °F 86% 29.82 in 0.5 mi SW 20.7 mph 26.5 mph 0.03 in Fog , Snow Snow
2:55 PM 30.9 °F 18.4 °F 27.0 °F 85% 29.85 in 0.5 mi SW 20.7 mph 26.5 mph 0.03 in Snow Light Snow
3:55 PM 30.9 °F 20.2 °F 28.0 °F 89% 29.88 in 0.5 mi SW 15.0 mph - 0.03 in Snow Light Snow
4:55 PM 32.0 °F 21.6 °F 28.0 °F 85% 29.91 in 0.5 mi SW 15.0 mph 21.9 mph 0.03 in Snow Light Snow
5:55 PM 32.0 °F 23.0 °F 28.9 °F 88% 29.93 in 0.5 mi WSW 11.5 mph - 0.05 in Snow Light Snow
6:55 PM 32.0 °F 25.6 °F 28.9 °F 88% 29.94 in 0.5 mi WSW 6.9 mph - 0.06 in Snow Light Snow
7:10 PM 32.0 °F 25.6 °F 28.4 °F 87% 29.94 in 1.5 mi WSW 6.9 mph - 0.00 in Snow Light Snow
7:55 PM 32.0 °F 26.4 °F 28.9 °F 88% 29.98 in 1.5 mi West 5.8 mph - 0.01 in Snow Light Snow
8:10 PM 32.0 °F 27.5 °F 28.4 °F 87% 29.95 in 1.5 mi West 4.6 mph - 0.01 in Snow Light Snow
8:20 PM 32.0 °F 27.5 °F 28.4 °F 87% 29.96 in 1.5 mi West 4.6 mph - 0.01 in Snow Light Snow
8:44 PM 32.0 °F 28.7 °F 30.2 °F 93% 29.96 in 1.5 mi West 3.5 mph - 0.02 in Snow Light Snow
8:47 PM 32.0 °F 27.5 °F 28.4 °F 87% 29.96 in 1.5 mi West 4.6 mph - 0.02 in Snow Light Snow
8:55 PM 32.0 °F 28.7 °F 30.0 °F 92% 29.99 in 1.5 mi West 3.5 mph - 0.02 in Snow Light Snow
9:01 PM 32.0 °F - 30.2 °F 93% 29.96 in 2.0 mi Calm Calm - 0.00 in Snow Light Snow
9:35 PM 32.0 °F - 28.4 °F 87% 29.95 in 2.0 mi Calm Calm - 0.00 in Snow Light Snow
9:55 PM 32.0 °F - 28.9 °F 88% 29.99 in 2.0 mi Calm Calm - 0.00 in Snow Light Snow
10:55 PM 30.9 °F - 28.0 °F 89% 29.99 in 2.0 mi Calm Calm - 0.00 in   Overcast
11:55 PM 30.9 °F - 28.0 °F 89% 30.00 in 2.5 mi Calm Calm - N/A   Overcast